Location: Marcé
(47.5801°N, 0.3280°W)
Time: 15:31:23
(UTC+01:00)

Transit 2A - Pass Details

Date: 09 December 2021
Orbit: 591 x 967 km, 66.7° (Epoch: 21 January)

Event Time Altitude Azimuth Distance (km) Brightness Sun altitude
Rises 01:55:07 0° 258° (WSW) 3,426 - -62.3°
Reaches altitude 10° 01:57:57 10° 271° (W) 2,549 - -62.1°
Maximum altitude 02:02:53 26° 327° (NNW) 1,746 - -61.6°
Drops below altitude 10° 02:08:05 10° 22° (NNE) 2,695 - -61.1°
Sets 02:11:11 0° 35° (NE) 3,661 - -60.8°
